�N����,����,�~����,�C��,���x,�C��,����,���ϕ���,�ő�u�ԕ���,�ő厞����,���˗�,�I�_���x,�n�����x,�ő啗���N��,DTYPE
"20/06/02","00:10",0.0,21.6,81.9,1003.6,325.9,1.5,2.5,334.6,0.00,18.4,22.0,"00:01:36",1
"20/06/02","00:20",0.0,21.4,82.3,1003.4,30.6,0.3,1.8,349.7,0.00,18.3,21.8,"00:10:40",1
"20/06/02","00:30",0.0,21.4,82.9,1002.6,284.9,0.5,1.0,314.6,0.00,18.4,22.0,"00:21:44",1
"20/06/02","00:40",0.0,21.3,83.1,1002.6,272.6,0.3,1.1,203.0,0.00,18.4,21.5,"00:32:48",1
"20/06/02","00:50",0.0,21.3,83.5,1002.9,322.1,1.0,1.4,341.7,0.00,18.4,21.7,"00:49:28",1
"20/06/02","01:00",0.0,21.3,83.7,1002.6,330.4,1.1,2.0,335.4,0.00,18.5,21.9,"00:51:28",1
"20/06/02","01:10",0.0,21.3,84.0,1002.9,329.1,1.3,2.0,337.6,0.00,18.5,21.7,"01:03:52",1
"20/06/02","01:20",0.0,21.0,84.3,1003.1,290.9,0.8,1.2,296.9,0.00,18.3,21.6,"01:15:28",1
"20/06/02","01:30",0.0,21.0,84.7,1002.9,326.2,0.3,1.1,340.5,0.00,18.4,21.4,"01:23:20",1
"20/06/02","01:40",0.0,20.8,84.9,1002.9,309.5,0.8,1.2,320.4,0.00,18.2,21.6,"01:33:12",1
"20/06/02","01:50",0.0,20.6,85.1,1002.6,298.1,0.3,0.8,260.0,0.00,18.0,21.6,"01:40:32",1
"20/06/02","02:00",0.0,20.6,85.7,1002.4,339.3,1.1,2.0,316.5,0.00,18.2,21.6,"01:56:56",1
"20/06/02","02:10",0.0,20.5,86.3,1002.6,319.2,1.5,1.8,327.0,0.00,18.2,21.4,"02:02:48",1
"20/06/02","02:20",0.0,20.4,86.6,1002.4,302.1,1.0,1.4,317.6,0.00,18.1,21.4,"02:11:04",1
"20/06/02","02:30",0.0,20.4,87.2,1002.6,316.2,1.3,2.5,339.6,0.00,18.2,21.5,"02:29:36",1
"20/06/02","02:40",0.0,20.4,87.5,1002.9,328.0,1.7,2.2,331.6,0.00,18.3,21.3,"02:38:48",1
"20/06/02","02:50",0.0,20.4,87.8,1003.1,317.5,1.6,2.5,331.6,0.00,18.3,21.4,"02:47:36",1
"20/06/02","03:00",0.0,20.5,87.9,1003.1,328.9,1.6,2.6,337.6,0.00,18.5,21.4,"02:55:36",1
"20/06/02","03:10",0.0,20.5,88.0,1003.4,298.9,1.5,2.4,316.7,0.00,18.5,21.4,"03:04:00",1
"20/06/02","03:20",0.0,20.5,88.1,1003.4,309.5,1.1,1.8,323.8,0.00,18.5,21.3,"03:14:16",1
"20/06/02","03:30",0.0,20.4,88.2,1003.4,309.5,1.2,1.7,320.1,0.00,18.4,21.2,"03:24:08",1
"20/06/02","03:40",0.0,20.3,88.1,1002.9,288.7,0.6,1.3,314.1,0.00,18.3,21.2,"03:30:08",1
"20/06/02","03:50",0.0,20.1,88.3,1003.1,312.9,1.1,1.6,320.9,0.00,18.1,21.2,"03:44:16",1
"20/06/02","04:00",0.0,20.0,88.4,1003.4,311.0,1.2,1.6,319.3,0.00,18.1,21.2,"03:52:48",1
"20/06/02","04:10",0.0,20.0,88.6,1003.4,328.8,1.0,1.4,339.8,0.00,18.1,21.0,"04:08:32",1
"20/06/02","04:20",0.0,19.8,88.7,1003.1,331.4,1.2,1.8,350.5,0.00,17.9,21.0,"04:12:40",1
"20/06/02","04:30",0.0,19.4,89.0,1003.4,280.3,0.8,1.6,309.9,0.00,17.6,21.0,"04:26:24",1
"20/06/02","04:40",0.0,19.4,89.3,1003.1,336.2,1.0,1.3,334.2,0.00,17.6,20.9,"04:30:56",1
"20/06/02","04:50",0.0,19.3,89.5,1003.4,294.2,1.0,1.4,308.4,0.00,17.6,20.9,"04:48:32",1
"20/06/02","05:00",0.0,19.1,89.7,1003.1,294.5,0.8,1.6,318.7,0.00,17.4,20.9,"04:51:04",1
"20/06/02","05:10",0.0,19.1,90.0,1003.4,316.7,1.2,1.7,334.2,0.00,17.5,20.8,"05:06:36",1
"20/06/02","05:20",0.0,19.1,90.2,1003.6,322.0,1.3,2.1,332.8,0.00,17.5,20.7,"05:18:48",1
"20/06/02","05:30",0.0,19.0,90.4,1003.1,297.6,0.8,1.6,309.9,0.00,17.4,20.5,"05:20:16",1
"20/06/02","05:40",0.0,19.1,90.5,1003.4,298.9,0.7,1.1,315.3,0.01,17.5,20.7,"05:37:36",1
"20/06/02","05:50",0.0,19.4,90.7,1003.6,306.8,1.1,1.6,324.6,0.02,17.9,20.7,"05:45:20",1
"20/06/02","06:00",0.0,19.8,90.8,1003.6,304.8,0.7,1.4,335.7,0.03,18.3,20.6,"05:59:44",1
"20/06/02","06:10",0.0,20.2,90.8,1003.8,331.7,1.2,1.9,329.7,0.04,18.7,20.8,"06:08:52",1
"20/06/02","06:20",0.0,20.4,90.8,1003.8,332.0,1.3,2.4,342.4,0.06,18.9,20.8,"06:14:48",1
"20/06/02","06:30",0.0,21.0,90.7,1004.1,336.7,0.8,1.8,330.6,0.07,19.5,20.9,"06:21:36",1
"20/06/02","06:40",0.0,21.7,90.5,1004.8,354.8,0.6,1.4,343.0,0.09,20.1,20.9,"06:35:52",1
"20/06/02","06:50",0.0,22.7,90.0,1003.8,314.8,0.1,0.8,311.0,0.12,21.0,21.0,"06:40:08",1
"20/06/02","07:00",0.0,23.0,89.0,1004.1,64.5,0.3,1.2,109.3,0.15,21.1,20.7,"06:57:52",1
"20/06/02","07:10",0.0,23.1,87.6,1004.3,119.7,0.6,1.7,113.8,0.16,21.0,21.3,"07:07:52",1
"20/06/02","07:20",0.0,23.2,84.5,1004.1,343.1,1.2,3.5,348.6,0.18,20.5,21.3,"07:19:20",1
"20/06/02","07:30",0.0,23.1,81.7,1003.8,307.6,1.3,3.2,358.5,0.10,19.8,21.0,"07:20:32",1
"20/06/02","07:40",0.0,23.3,79.8,1003.6,258.7,1.1,2.5,232.1,0.12,19.7,21.2,"07:37:44",1
"20/06/02","07:50",0.0,24.1,77.7,1003.4,263.6,1.2,2.5,320.2,0.25,20.0,21.7,"07:43:04",1
"20/06/02","08:00",0.0,24.7,74.1,1003.8,278.5,1.1,2.0,289.3,0.26,19.8,21.7,"07:55:20",1
"20/06/02","08:10",0.0,24.8,71.8,1003.1,346.0,2.0,5.6,349.4,0.26,19.4,21.7,"08:05:48",1
"20/06/02","08:20",0.0,24.7,71.0,1002.6,308.2,1.3,3.4,339.2,0.15,19.1,21.8,"08:11:52",1
"20/06/02","08:30",0.0,25.3,70.6,1002.6,331.8,1.7,4.1,337.8,0.34,19.6,22.2,"08:20:56",1
"20/06/02","08:40",0.0,25.9,67.6,1002.2,325.1,0.8,2.7,341.8,0.35,19.5,22.5,"08:30:48",1
"20/06/02","08:50",0.0,26.5,65.4,1001.7,297.1,1.0,2.9,348.8,0.40,19.5,22.5,"08:45:52",1
"20/06/02","09:00",0.0,26.8,63.1,1002.2,329.5,1.3,2.5,23.3,0.43,19.2,22.9,"08:54:24",1
"20/06/02","09:10",0.0,26.7,61.9,1001.7,310.8,1.2,4.1,226.5,0.39,18.8,23.1,"09:05:28",1
"20/06/02","09:20",0.0,27.1,60.0,1002.4,300.8,1.1,2.6,219.0,0.48,18.7,23.3,"09:18:56",1
"20/06/02","09:30",0.0,26.8,60.0,1002.9,326.2,1.7,3.5,334.9,0.40,18.4,23.5,"09:24:40",1
"20/06/02","09:40",0.0,27.4,57.9,1002.9,225.4,1.2,2.9,203.8,0.52,18.4,23.8,"09:37:44",1
"20/06/02","09:50",0.0,27.2,55.4,1002.4,333.6,1.7,4.5,346.3,0.44,17.5,24.0,"09:44:40",1
"20/06/02","10:00",0.0,26.8,56.6,1002.2,332.2,1.8,3.9,338.3,0.29,17.5,24.2,"09:55:36",1
"20/06/02","10:10",0.0,27.0,55.6,1002.2,288.6,1.1,2.9,307.0,0.42,17.4,24.2,"10:01:20",1
"20/06/02","10:20",0.0,28.0,51.7,1002.2,8.8,1.1,2.5,325.7,0.56,17.2,24.6,"10:13:20",1
"20/06/02","10:30",0.0,28.5,48.1,1002.2,279.5,1.3,3.5,343.3,0.57,16.5,24.8,"10:24:08",1
"20/06/02","10:40",0.0,28.3,45.2,1002.2,320.6,1.8,4.8,348.9,0.58,15.3,25.2,"10:35:36",1
"20/06/02","10:50",0.0,28.6,44.7,1001.7,295.2,1.5,3.5,291.3,0.58,15.4,25.2,"10:42:32",1
"20/06/02","11:00",0.0,28.7,43.9,1001.7,307.3,1.7,4.9,339.8,0.60,15.3,25.7,"10:56:08",1
"20/06/02","11:10",0.0,28.8,39.3,1001.7,232.2,2.5,6.7,208.6,0.60,13.6,25.7,"11:04:40",1
"20/06/02","11:20",0.0,29.2,40.0,1001.7,238.2,1.6,3.7,192.1,0.61,14.3,25.9,"11:10:08",1
"20/06/02","11:30",0.0,29.7,41.0,1001.7,115.2,1.3,4.1,355.4,0.61,15.1,26.3,"11:29:12",1
"20/06/02","11:40",0.0,29.4,40.7,1001.7,319.2,2.1,4.8,351.4,0.61,14.7,26.6,"11:38:08",1
"20/06/02","11:50",0.0,29.2,40.0,1001.7,358.8,2.1,5.6,354.6,0.61,14.3,26.6,"11:48:08",1
"20/06/02","12:00",0.0,29.7,38.7,1001.7,326.2,1.8,4.5,344.5,0.61,14.2,26.9,"11:52:24",1
"20/06/02","12:10",0.0,29.7,36.7,1001.2,309.5,1.7,4.3,338.5,0.57,13.4,26.9,"12:09:44",1
"20/06/02","12:20",0.0,30.0,38.7,1001.2,313.3,1.6,5.0,344.7,0.57,14.5,27.1,"12:10:24",1
"20/06/02","12:30",0.0,30.0,35.2,1001.2,315.2,1.7,4.5,344.3,0.62,13.0,27.3,"12:29:20",1
"20/06/02","12:40",0.0,30.0,34.2,1001.0,320.9,2.1,4.0,341.0,0.60,12.6,27.4,"12:38:32",1
"20/06/02","12:50",0.0,30.6,36.7,1001.0,313.8,1.3,3.3,316.9,0.60,14.2,27.5,"12:44:08",1
"20/06/02","13:00",0.0,31.1,33.6,1001.5,209.6,0.7,2.1,231.1,0.60,13.3,27.4,"12:53:28",1
"20/06/02","13:10",0.0,31.1,32.7,1001.2,309.7,1.2,2.9,247.6,0.60,12.8,27.2,"13:06:40",1
"20/06/02","13:20",0.0,31.4,34.3,1001.2,280.1,1.1,2.6,229.0,0.59,13.8,27.3,"13:14:00",1
"20/06/02","13:30",0.0,31.4,34.8,1001.2,297.3,1.3,2.6,333.0,0.59,14.1,27.0,"13:24:00",1
"20/06/02","13:40",0.0,31.3,36.9,1001.5,344.1,1.7,5.1,344.9,0.56,14.9,26.8,"13:35:20",1
"20/06/02","13:50",0.0,31.1,34.7,1001.2,64.3,1.1,2.4,22.2,0.41,13.8,27.0,"13:42:08",1
"20/06/02","14:00",0.0,31.1,36.2,1001.0,130.8,0.8,2.1,109.0,0.45,14.4,26.8,"13:52:40",1
"20/06/02","14:10",0.0,30.8,34.3,1001.0,177.6,2.3,10.2,201.6,0.53,13.3,26.8,"14:05:58",1
"20/06/02","14:20",0.0,30.4,43.2,1000.8,201.9,2.7,6.3,191.7,0.47,16.5,26.8,"14:17:20",1
"20/06/02","14:30",0.0,29.7,44.4,999.8,200.4,3.5,6.7,223.4,0.34,16.3,27.1,"14:24:00",1
"20/06/02","14:40",0.0,28.9,45.2,999.1,187.6,3.6,6.0,197.4,0.14,15.9,26.7,"14:35:44",1
"20/06/02","14:50",0.0,30.0,43.6,999.1,191.7,2.8,6.3,212.8,0.39,16.3,26.9,"14:40:40",1
"20/06/02","15:00",0.0,29.6,42.9,999.6,176.0,3.0,5.9,205.2,0.32,15.7,26.9,"14:59:52",1
"20/06/02","15:10",0.0,29.9,43.6,999.3,172.7,3.0,5.7,184.0,0.39,16.2,26.4,"15:04:48",1
"20/06/02","15:20",0.0,30.1,41.7,999.6,175.4,3.1,6.5,205.9,0.38,15.7,26.6,"15:11:44",1
"20/06/02","15:30",0.0,30.0,41.0,999.3,202.6,3.1,6.2,214.3,0.36,15.4,26.5,"15:21:52",1
"20/06/02","15:40",0.0,30.1,40.1,999.6,184.1,2.2,5.0,215.2,0.34,15.1,26.7,"15:34:00",1
"20/06/02","15:50",0.0,30.0,39.7,999.3,196.1,2.8,6.0,208.0,0.32,14.9,26.5,"15:48:48",1
"20/06/02","16:00",0.0,30.0,39.7,999.6,182.4,2.6,5.0,195.0,0.30,14.9,26.6,"15:50:56",1
"20/06/02","16:10",0.0,30.0,38.5,999.3,198.9,2.8,5.9,203.3,0.28,14.4,26.6,"16:04:16",1
"20/06/02","16:20",0.0,29.9,38.2,999.3,182.3,2.5,5.0,202.1,0.25,14.2,26.4,"16:19:44",1
"20/06/02","16:30",0.0,29.8,39.2,999.3,195.4,2.5,4.3,213.2,0.23,14.5,26.4,"16:25:36",1
"20/06/02","16:40",0.0,29.7,40.2,999.3,200.5,2.5,4.4,205.6,0.20,14.8,26.3,"16:32:00",1
"20/06/02","16:50",0.0,29.6,40.9,999.1,187.0,2.3,4.1,159.0,0.12,15.0,26.3,"16:44:24",1
"20/06/02","17:00",0.0,29.5,41.1,998.9,201.1,2.3,4.2,203.7,0.04,15.0,26.4,"16:55:20",1
"20/06/02","17:10",0.0,29.3,42.6,998.6,197.6,2.5,4.3,185.9,0.04,15.3,26.4,"17:00:24",1
"20/06/02","17:20",0.0,28.8,43.5,998.9,185.6,2.7,5.1,215.8,0.03,15.2,26.3,"17:13:04",1
"20/06/02","17:30",0.0,28.5,44.3,998.4,197.5,2.1,4.0,226.1,0.03,15.2,26.1,"17:25:12",1
"20/06/02","17:40",0.0,28.1,44.6,998.6,200.7,2.6,4.3,224.2,0.03,15.0,26.1,"17:31:28",1
"20/06/02","17:50",0.0,27.9,45.4,998.2,233.2,1.8,4.8,223.7,0.03,15.1,26.0,"17:43:52",1
"20/06/02","18:00",0.0,27.5,45.8,998.4,247.6,1.5,4.5,206.1,0.02,14.8,25.7,"17:56:16",1
"20/06/02","18:10",0.0,27.2,46.9,998.9,254.1,1.6,4.1,232.5,0.02,14.9,25.6,"18:05:46",1
"20/06/02","18:20",0.0,27.1,47.6,999.3,243.7,1.6,3.9,224.8,0.02,15.1,25.6,"18:13:44",1
"20/06/02","18:30",0.0,26.8,48.2,999.6,259.1,1.1,2.1,234.5,0.01,15.0,25.5,"18:26:00",1
"20/06/02","18:40",0.0,26.4,48.9,999.3,264.3,1.3,2.9,250.6,0.00,14.8,25.3,"18:33:04",1
"20/06/02","18:50",0.0,26.1,49.8,999.6,273.6,0.6,2.1,260.3,0.00,14.9,25.3,"18:40:40",1
"20/06/02","19:00",0.0,25.8,52.1,999.8,345.5,0.8,1.7,342.2,0.00,15.3,25.2,"18:54:48",1
"20/06/02","19:10",0.0,25.3,53.0,999.6,316.6,1.0,2.2,341.6,0.00,15.1,25.0,"19:01:20",1
"20/06/02","19:20",0.0,24.9,54.4,999.6,285.9,0.8,2.0,235.9,0.00,15.1,24.8,"19:17:12",1
"20/06/02","19:30",0.0,24.8,55.3,1000.3,285.5,0.7,1.8,206.8,0.00,15.3,24.7,"19:27:04",1
"20/06/02","19:40",0.0,24.5,59.2,999.8,339.3,1.2,2.0,330.7,0.00,16.1,24.8,"19:32:56",1
"20/06/02","19:50",0.0,24.0,61.9,999.8,334.3,1.0,1.7,344.7,0.00,16.3,24.4,"19:46:56",1
"20/06/02","20:00",0.0,23.5,62.9,1000.5,308.1,0.7,1.1,313.3,0.00,16.1,24.4,"19:59:52",1
"20/06/02","20:10",0.0,23.1,63.6,1000.3,278.8,0.6,1.2,273.4,0.00,15.9,24.2,"20:07:54",1
"20/06/02","20:20",0.0,22.9,64.1,1000.8,297.4,0.7,1.6,324.6,0.00,15.8,24.1,"20:16:16",1
"20/06/02","20:30",0.0,23.0,64.9,1000.5,325.2,1.0,2.5,348.2,0.00,16.1,23.8,"20:28:24",1
"20/06/02","20:40",0.0,23.3,65.4,1000.8,319.3,1.3,2.4,325.5,0.00,16.5,24.1,"20:36:08",1
"20/06/02","20:50",0.0,23.3,66.1,1000.8,314.8,1.0,2.1,337.5,0.00,16.7,23.8,"20:45:28",1
"20/06/02","21:00",0.0,23.0,66.7,1000.8,313.3,1.3,2.1,317.0,0.00,16.5,23.7,"20:54:56",1
"20/06/02","21:10",0.0,22.7,67.7,1001.0,318.8,1.3,2.2,329.7,0.00,16.5,23.7,"21:01:12",1
"20/06/02","21:20",0.0,22.6,68.7,1001.2,315.9,1.1,1.9,329.3,0.00,16.6,23.3,"21:18:48",1
"20/06/02","21:30",0.0,22.3,70.2,1001.2,328.7,1.3,2.0,338.8,0.00,16.7,23.3,"21:28:48",1
"20/06/02","21:40",0.0,22.0,72.1,1001.2,327.3,1.3,2.0,341.4,0.00,16.8,23.2,"21:32:00",1
"20/06/02","21:50",0.0,21.7,73.4,1001.2,329.2,1.3,2.0,311.8,0.00,16.8,23.1,"21:41:04",1
"20/06/02","22:00",0.0,21.4,74.0,1001.2,332.9,1.8,2.7,335.7,0.00,16.6,22.9,"21:55:12",1
"20/06/02","22:10",0.0,21.2,74.3,1001.5,332.9,1.8,2.7,336.0,0.00,16.5,23.2,"22:06:22",1
"20/06/02","22:20",0.0,21.2,74.9,1001.5,335.5,1.6,2.7,347.0,0.00,16.6,22.9,"22:18:08",1
"20/06/02","22:30",0.0,21.0,75.4,1001.5,332.3,1.3,2.1,341.1,0.00,16.5,22.9,"22:21:36",1
"20/06/02","22:40",0.0,20.9,76.1,1001.5,333.7,1.6,2.2,330.7,0.00,16.6,22.6,"22:35:12",1
"20/06/02","22:50",0.0,20.8,75.8,1001.5,333.2,1.8,2.7,337.9,0.00,16.4,22.7,"22:44:00",1
"20/06/02","23:00",0.0,20.8,75.8,1001.7,334.5,1.2,2.0,334.7,0.00,16.4,22.7,"22:51:04",1
"20/06/02","23:10",0.0,20.7,75.5,1001.5,347.5,1.1,1.6,348.7,0.00,16.3,22.6,"23:01:12",1
"20/06/02","23:20",0.0,20.8,74.9,1001.5,336.2,1.2,2.7,342.3,0.00,16.2,22.5,"23:17:28",1
"20/06/02","23:30",0.0,20.8,74.8,1001.5,298.4,1.2,2.0,285.3,0.00,16.2,22.4,"23:28:00",1
"20/06/02","23:40",0.0,20.8,75.1,1001.7,314.0,1.5,2.5,337.1,0.00,16.3,22.1,"23:33:12",1
"20/06/02","23:50",0.0,20.7,74.7,1001.5,343.2,1.3,2.4,314.6,0.00,16.1,22.4,"23:40:24",1
"20/06/02","24:00",0.0,20.3,74.5,1001.2,335.9,1.0,1.7,347.1,0.00,15.7,22.2,"23:50:56",1
